Location: Indian Hills
(32.9760°N, 85.9450°W)
Time: 01:23:30
(UTC+00:00)

Cosmos 1954 Rocket - Pass Details

Date: 09 December 2019
Orbit: 751 x 782 km, 74.0° (Epoch: 27 January)

Event Time Altitude Azimuth Distance (km) Brightness Sun altitude
Exits shadow 11:34:30 - 335° (NNW) 2,619 6.4 -12.5°
Reaches altitude 10° 11:35:18 10° 333° (NNW) 2,320 6.1 -12.3°
Maximum altitude 11:40:25 53° 257° (WSW) 945 4.2 -11.3°
Drops below altitude 10° 11:45:32 10° 181° (S) 2,322 6.8 -10.3°
Sets 11:47:58 0° 177° (S) 3,248 7.6 -9.8°
